Location: Moonridge Observatory
(39.2268°N, 77.7914°W)
Time: 11:40:54
(UTC-04:00)

Amateur Radio Satellites - All Passes

Search period start: 27 March 2015 11:10
Search period end: 28 March 2015 11:10
Location: Moonridge Observatory, 39.2268°N, 77.7914°W

Satellite Date Start Highest point End Downlink Frequencies (MHz)
Time Altitude Azimuth
DX 1 27 Mar 11:11:11 11:15:23 48° 100° (E) 11:19:35 434.975-435.025
DOVE 4 27 Mar 11:12:03 11:15:26 22° 290° (WNW) 11:18:49 437.250
GOMX 1 27 Mar 11:12:08 11:14:43 15° 292° (WNW) 11:17:11 467.674
NANOSAT C BR1 27 Mar 11:14:47 11:18:55 61° 75° (ENE) 11:23:06 145.865
BUGSAT 1 27 Mar 11:15:55 11:19:54 44° 73° (ENE) 11:23:51 437.445
POLYITAN 1 27 Mar 11:16:41 11:20:52 66° 75° (ENE) 11:25:04 437.675
HO-68 27 Mar 11:17:44 11:24:10 36° 295° (WNW) 11:30:29 435.675
DELFI C3 27 Mar 11:23:01 11:27:03 54° 285° (WNW) 11:31:03 145.870
HUMSAT D 27 Mar 11:27:01 11:31:09 50° 99° (E) 11:35:19 437.325/437.525
BEESAT 3 27 Mar 11:27:36 11:31:41 85° 121° (ESE) 11:35:51 437.485
ANTELSAT 27 Mar 11:27:47 11:31:54 47° 261° (W) 11:36:03 437.575/2403.000
SEEDS 27 Mar 11:28:36 11:30:55 14° 294° (WNW) 11:33:04 437.485
AAUSAT CUBESAT 2 27 Mar 11:29:07 11:32:06 18° 292° (WNW) 11:34:57 437.432
Oscar 11 27 Mar 11:35:07 11:39:03 33° 289° (WNW) 11:42:57 145.826/435.025
CUBEBUG 2 27 Mar 11:37:53 11:42:00 40° 287° (WNW) 11:46:12 437.445
UWE-3 27 Mar 11:38:00 11:42:13 48° 286° (WNW) 11:46:32 435.000/436.395/437.385
FUNcube-1 27 Mar 11:40:15 11:44:32 57° 285° (WNW) 11:48:53 145.935
VELOX 1 27 Mar 11:41:09 11:45:22 44° 99° (E) 11:49:34 145.980
AISAT 27 Mar 11:44:39 11:48:56 50° 99° (E) 11:53:14 437.250
AIST 2 27 Mar 11:45:20 11:49:14 36° 115° (ESE) 11:53:12 435.215
CUBEBUG 1 27 Mar 11:49:04 11:52:31 24° 94° (E) 11:56:03 437.445
ZACube-1 27 Mar 11:52:19 11:56:25 41° 287° (WNW) 12:00:36 437.345
QB50P1 27 Mar 11:55:43 11:59:45 43° 261° (W) 12:03:47 145.935-145.965
DUCHIFAT 1 27 Mar 11:59:05 12:03:04 40° 262° (W) 12:07:03 145.980
ESTCUBE 1 27 Mar 12:05:52 12:10:10 42° 98° (E) 12:14:27 437.505/2401.250
QB50P2 27 Mar 12:10:04 12:13:47 29° 264° (W) 12:17:29 145.880/145.840
VERMONT LUNAR 27 Mar 12:12:08 12:15:05 28° 207° (SSW) 12:18:03 437.305
BEESAT 2 27 Mar 12:26:10 12:29:48 29° 310° (NW) 12:33:27 435.950
UNISAT 6 27 Mar 12:27:26 12:28:42 11° 272° (W) 12:29:42 437.425
PHONESAT 2.4 27 Mar 12:32:10 12:35:35 45° 203° (SSW) 12:39:00 2401.200-2431.200
POPSAT HIP 1 27 Mar 12:41:03 12:43:27 14° 269° (W) 12:45:39 437.405
UKube-1 27 Mar 12:41:22 12:44:23 18° 293° (WNW) 12:47:16 .
50 SAT 27 Mar 12:41:44 12:45:20 31° 288° (WNW) 12:48:54 437.505
DX 1 27 Mar 12:48:46 12:51:17 15° 295° (WNW) 12:53:38 434.975-435.025
BUGSAT 1 27 Mar 12:53:20 12:55:39 14° 269° (W) 12:57:46 437.445
NANOSAT C BR1 27 Mar 12:54:33 12:55:16 10° 271° (W) 12:55:43 145.865
YUBILEINY 27 Mar 13:00:34 13:05:52 19° 80° (E) 13:11:41 435.215
Oscar 19 27 Mar 13:01:03 13:05:17 28° 68° (ENE) 13:09:38 437.125/150
HUMSAT D 27 Mar 13:04:16 13:06:35 14° 293° (WNW) 13:08:42 437.325/437.525
BEESAT 3 27 Mar 13:08:45 13:10:23 12° 320° (NW) 13:11:53 437.485
VELOX 1 27 Mar 13:18:46 13:21:38 17° 294° (WNW) 13:24:20 145.980
AISAT 27 Mar 13:22:37 13:25:11 15° 294° (WNW) 13:27:35 437.250
AIST 2 27 Mar 13:24:30 13:27:58 23° 313° (NW) 13:31:22 435.215
CUBEBUG 1 27 Mar 13:25:10 13:28:54 28° 290° (WNW) 13:32:33 437.445
TISAT 1 27 Mar 13:41:30 13:45:42 84° 284° (WNW) 13:49:54 437.305
SPROUT 27 Mar 13:43:05 13:47:21 67° 285° (WNW) 13:51:36 437.525
ESTCUBE 1 27 Mar 13:43:39 13:46:47 18° 293° (WNW) 13:49:44 437.505/2401.250
ITAMSAT 1 27 Mar 14:00:51 14:05:28 34° 69° (ENE) 14:10:10 435.822/435.867
AO-7 27 Mar 14:07:52 14:11:11 13° 49° (NE) 14:14:57 29.400- 29.500
ITUPSAT 1 27 Mar 14:09:56 14:14:00 28° 95° (E) 14:18:07 437.325
PHONESAT 2.4 27 Mar 14:12:52 14:13:27 10° 216° (SW) 14:13:55 2401.200-2431.200
PCSat 27 Mar 14:19:10 14:20:50 12° 104° (ESE) 14:22:52 145.827
O/OREOS (USA 219) 27 Mar 14:19:25 14:23:23 29° 60° (ENE) 14:27:22 437.305
Gurwin Techsat 1B 27 Mar 14:35:38 14:40:49 57° 73° (ENE) 14:46:03 435.225
Oscar 19 27 Mar 14:39:57 14:44:33 33° 264° (W) 14:49:08 437.125/150
YUBILEINY 27 Mar 14:52:54 15:01:43 84° 278° (W) 15:10:37 435.215
SWISSCUBE 27 Mar 14:58:23 15:03:12 83° 284° (WNW) 15:07:58 437.505
BEESAT 27 Mar 15:01:46 15:06:35 83° 283° (WNW) 15:11:22 436.000
JAS-2 27 Mar 15:16:33 15:21:37 23° 60° (ENE) 15:27:16 435.910
HORYU 2 27 Mar 15:20:08 15:24:04 33° 71° (ENE) 15:28:06 437.375
ITAMSAT 1 27 Mar 15:40:31 15:45:01 28° 265° (W) 15:49:26 435.822/435.867
KKS-1 27 Mar 15:46:51 15:51:14 55° 100° (E) 15:55:36 437.445
ITUPSAT 1 27 Mar 15:47:43 15:51:54 29° 291° (WNW) 15:55:58 437.325
AO-7 27 Mar 15:54:24 16:02:31 62° 68° (ENE) 16:10:41 29.400- 29.500
PCSat 27 Mar 15:58:12 16:03:37 84° 297° (WNW) 16:09:06 145.827
O/OREOS (USA 219) 27 Mar 15:58:58 16:02:43 25° 257° (WSW) 16:06:22 437.305
AIST 1 27 Mar 16:07:30 16:11:49 73° 82° (E) 16:16:05
Gurwin Techsat 1B 27 Mar 16:17:45 16:21:15 17° 270° (W) 16:24:31 435.225
STARS 27 Mar 16:24:09 16:28:34 88° 289° (WNW) 16:32:59 437.465
YUBILEINY 27 Mar 16:54:45 17:00:13 17° 300° (WNW) 17:05:10 435.215
HORYU 2 27 Mar 16:57:26 17:00:50 21° 267° (W) 17:04:08 437.375
JAS-2 27 Mar 16:59:13 17:05:54 71° 259° (W) 17:13:25 435.910
MOZHAYETS 4 27 Mar 17:06:21 17:09:58 23° 93° (E) 17:13:40
AUBIESAT-1 27 Mar 17:23:38 17:24:38 11° 92° (E) 17:25:58 437.475
KKS-1 27 Mar 17:25:07 17:27:28 14° 295° (WNW) 17:29:38 437.445
M-CUBED/EXP-1 PRIME 27 Mar 17:43:58 17:47:35 21° 97° (E) 17:51:18 437.505
Cubesat XI-IV 27 Mar 17:44:46 17:49:09 27° 67° (ENE) 17:53:38 437.490
PCSat 27 Mar 17:45:00 17:47:58 14° 319° (NW) 17:50:45 145.827
CUTE-I 27 Mar 17:45:16 17:49:38 27° 67° (ENE) 17:54:06 437.470
JUGNU 27 Mar 17:48:44 17:50:00 11° 184° (S) 17:51:14 437.505
AO-7 27 Mar 17:48:54 17:55:52 28° 266° (W) 18:02:36 29.400- 29.500
MOZHAYETS 4 27 Mar 18:43:05 18:47:17 34° 289° (WNW) 18:51:25
SRMSAT 27 Mar 18:43:42 18:45:09 11° 180° (S) 18:46:36 437.500
RS-15 27 Mar 18:44:07 18:53:00 32° 106° (ESE) 19:02:18 29.354- 29.394
CUBESAT XI-V 27 Mar 18:47:33 18:50:54 20° 92° (E) 18:54:22 437.345
JAS-2 27 Mar 18:51:25 18:52:41 10° 281° (W) 18:53:18 435.910
PRISM 27 Mar 18:54:41 18:57:23 17° 92° (E) 19:00:12 437.425
AUBIESAT-1 27 Mar 18:55:14 19:00:05 80° 289° (WNW) 19:04:50 437.475
BEESAT 2 27 Mar 19:09:17 19:11:35 15° 43° (NE) 19:13:59 435.950
GONETS M04 27 Mar 19:11:54 19:18:58 30° 85° (E) 19:26:19
M-CUBED/EXP-1 PRIME 27 Mar 19:18:01 19:22:38 42° 293° (WNW) 19:27:08 437.505
Cubesat XI-IV 27 Mar 19:24:07 19:29:07 38° 263° (W) 19:34:05 437.490
CUTE-I 27 Mar 19:24:34 19:29:34 38° 263° (W) 19:34:32 437.470
BRITE-PL 27 Mar 19:44:14 19:47:19 18° 69° (ENE) 19:50:25 437.365/2234.400
BEESAT 3 27 Mar 19:47:53 19:51:42 36° 52° (NE) 19:55:29 437.485
HO-68 27 Mar 19:57:47 20:03:43 30° 63° (ENE) 20:09:49 435.675
CANX-2 27 Mar 19:58:06 20:00:01 13° 66° (ENE) 20:02:08 2200.000
SO-50 27 Mar 20:04:21 20:08:57 89° 289° (WNW) 20:13:46 436.795
AIST 2 27 Mar 20:08:29 20:11:40 20° 46° (NE) 20:14:53 435.215
CUTE 1.7 + AOD 2 27 Mar 20:11:33 20:14:12 17° 68° (ENE) 20:17:01 437.475
STRAND 1 27 Mar 20:21:25 20:26:34 85° 281° (WNW) 20:31:39 437.568
CUBESAT XI-V 27 Mar 20:24:13 20:28:31 37° 288° (WNW) 20:32:44 437.345
PRISM 27 Mar 20:29:11 20:33:03 36° 289° (WNW) 20:36:51 437.425
AUBIESAT-1 27 Mar 20:33:24 20:34:11 10° 303° (WNW) 20:34:40 437.475
CINEMA 3 27 Mar 20:35:52 20:37:29 12° 66° (ENE) 20:39:19 145.822/145.860
DOVE 4 27 Mar 20:39:14 20:42:55 27° 71° (ENE) 20:46:32 437.250
GOMX 1 27 Mar 20:40:08 20:44:26 43° 73° (ENE) 20:48:33 467.674
SEEDS 27 Mar 20:42:42 20:46:23 30° 71° (ENE) 20:50:08 437.485
AAUSAT CUBESAT 2 27 Mar 20:43:19 20:46:30 22° 69° (ENE) 20:49:48 437.432
BEESAT 2 27 Mar 20:46:05 20:50:11 63° 242° (WSW) 20:54:12 435.950
RS-15 27 Mar 20:53:47 21:04:38 68° 306° (NW) 21:15:42 29.354- 29.394
Oscar 11 27 Mar 20:54:27 20:56:46 15° 66° (ENE) 20:59:16 145.826/435.025
CUBEBUG 2 27 Mar 21:01:18 21:02:59 13° 66° (ENE) 21:04:51 437.445
UWE-3 27 Mar 21:02:13 21:02:16 10° 65° (ENE) 21:02:34 435.000/436.395/437.385
GONETS M04 27 Mar 21:06:54 21:15:24 55° 283° (WNW) 21:23:56
COMPASS 1 27 Mar 21:07:51 21:11:52 48° 74° (ENE) 21:15:57 437.405
ZACube-1 27 Mar 21:14:08 21:15:24 11° 65° (ENE) 21:16:52 437.345
BRITE-PL 27 Mar 21:21:01 21:25:39 43° 261° (W) 21:29:58 437.365/2234.400
BEESAT 3 27 Mar 21:26:32 21:29:32 19° 248° (WSW) 21:32:23 437.485
CUSAT 1 27 Mar 21:27:49 21:30:41 37° 97° (E) 21:33:13 437.405
CANX-2 27 Mar 21:31:26 21:35:34 52° 261° (W) 21:39:43 2200.000
HO-68 27 Mar 21:44:12 21:51:09 52° 260° (W) 21:58:08 435.675
CUTE 1.7 + AOD 2 27 Mar 21:45:53 21:49:52 39° 263° (W) 21:53:52 437.475
AIST 2 27 Mar 21:46:27 21:50:28 41° 244° (WSW) 21:54:23 435.215
SO-50 27 Mar 21:47:46 21:50:19 14° 322° (NW) 21:52:44 436.795
UKube-1 27 Mar 21:58:35 22:02:18 29° 70° (ENE) 22:06:07 .
STRAND 1 27 Mar 22:04:11 22:05:03 10° 300° (WNW) 22:05:37 437.568
DANDE 27 Mar 22:04:41 22:08:03 74° 278° (W) 22:10:51 436.750
DX 1 27 Mar 22:05:49 22:09:50 37° 71° (ENE) 22:13:53 434.975-435.025
DELFI C3 27 Mar 22:09:25 22:13:28 78° 78° (ENE) 22:17:35 145.870
CINEMA 3 27 Mar 22:10:12 22:14:21 53° 260° (W) 22:18:26 145.822/145.860
DOVE 4 27 Mar 22:17:06 22:20:43 23° 265° (W) 22:24:06 437.250
HUMSAT D 27 Mar 22:18:22 22:21:55 30° 71° (ENE) 22:25:33 437.325/437.525
AAUSAT CUBESAT 2 27 Mar 22:18:24 22:22:02 28° 265° (W) 22:25:39 437.432
SEEDS 27 Mar 22:19:04 22:22:16 20° 267° (W) 22:25:24 437.485
GOMX 1 27 Mar 22:19:55 22:22:48 16° 268° (W) 22:25:26 467.674
Oscar 11 27 Mar 22:28:25 22:32:35 48° 261° (W) 22:36:48 145.826/435.025
UWE-3 27 Mar 22:34:12 22:38:20 66° 259° (W) 22:42:29 435.000/436.395/437.385
FUNcube-1 27 Mar 22:35:03 22:39:12 84° 259° (W) 22:43:22 145.935
CUBEBUG 2 27 Mar 22:35:14 22:39:18 52° 261° (W) 22:43:22 437.445
VELOX 1 27 Mar 22:37:55 22:41:56 35° 71° (ENE) 22:46:01 145.980
UNISAT 6 27 Mar 22:41:35 22:43:53 14° 90° (E) 22:46:27 437.425
AISAT 27 Mar 22:41:36 22:45:44 40° 72° (ENE) 22:49:54 437.250
CUBEBUG 1 27 Mar 22:44:50 22:47:52 19° 68° (ENE) 22:51:02 437.445
COMPASS 1 27 Mar 22:45:56 22:47:56 13° 271° (W) 22:49:42 437.405
ZACube-1 27 Mar 22:47:15 22:51:21 58° 260° (W) 22:55:27 437.345
TIGRISAT 27 Mar 22:52:10 22:55:12 18° 92° (E) 22:58:26 435.000
NANOSAT C BR1 27 Mar 23:03:47 23:04:25 10° 89° (E) 23:05:20 145.865
ESTCUBE 1 27 Mar 23:04:35 23:08:41 35° 71° (ENE) 23:12:51 437.505/2401.250
POLYITAN 1 27 Mar 23:05:33 23:06:55 12° 89° (E) 23:08:32 437.675
PCSat 27 Mar 23:06:39 23:07:57 11° 37° (NE) 23:09:30 145.827
RS-15 27 Mar 23:11:13 23:19:44 24° 335° (NNW) 23:28:12 29.354- 29.394
ISS 27 Mar 23:16:28 23:19:17 28° 134° (SE) 23:22:10 145.825
ANTELSAT 27 Mar 23:20:31 23:24:46 37° 97° (E) 23:29:06 437.575/2403.000
50 SAT 27 Mar 23:26:22 23:30:13 61° 259° (W) 23:34:07 437.505
UKube-1 27 Mar 23:34:59 23:38:30 23° 266° (W) 23:41:54 .
QB50P1 27 Mar 23:42:04 23:45:49 31° 96° (E) 23:49:35 145.935-145.965
DX 1 27 Mar 23:43:11 23:46:16 18° 268° (W) 23:49:13 434.975-435.025
DUCHIFAT 1 27 Mar 23:45:01 23:48:48 32° 97° (E) 23:52:37 145.980
HUMSAT D 27 Mar 23:54:43 23:57:47 20° 267° (W) 00:00:45 437.325/437.525
QB50P2 27 Mar 23:55:58 00:00:03 46° 99° (E) 00:04:08 145.880/145.840
VELOX 1 28 Mar 00:15:18 00:18:39 20° 267° (W) 00:21:52 145.980
UNISAT 6 28 Mar 00:16:35 00:21:03 54° 286° (WNW) 00:25:34 437.425
AISAT 28 Mar 00:19:28 00:22:33 18° 268° (W) 00:25:28 437.250
CUBEBUG 1 28 Mar 00:19:53 00:24:00 38° 262° (W) 00:28:07 437.445
POPSAT HIP 1 28 Mar 00:25:06 00:29:20 82° 283° (WNW) 00:33:34 437.405
TIGRISAT 28 Mar 00:27:52 00:32:10 42° 287° (WNW) 00:36:30 435.000
SWISSCUBE 28 Mar 00:30:03 00:31:18 11° 62° (ENE) 00:32:49 437.505
TISAT 1 28 Mar 00:32:34 00:36:44 62° 75° (ENE) 00:40:54 437.305
BEESAT 28 Mar 00:33:26 00:34:36 11° 62° (ENE) 00:36:03 436.000
BUGSAT 1 28 Mar 00:34:29 00:38:32 89° 297° (WNW) 00:42:34 437.445
SPROUT 28 Mar 00:35:58 00:40:15 80° 77° (ENE) 00:44:34 437.525
NANOSAT C BR1 28 Mar 00:36:35 00:40:45 60° 285° (WNW) 00:44:54 145.865
POLYITAN 1 28 Mar 00:39:06 00:43:15 55° 286° (WNW) 00:47:24 437.675
ESTCUBE 1 28 Mar 00:42:11 00:45:41 21° 267° (W) 00:49:05 437.505/2401.250
PCSat 28 Mar 00:47:13 00:52:37 61° 59° (ENE) 00:57:58 145.827
ISS 28 Mar 00:52:43 00:55:40 30° 330° (NNW) 00:58:36 145.825
ANTELSAT 28 Mar 00:57:53 01:01:21 21° 292° (WNW) 01:04:44 437.575/2403.000
YUBILEINY 28 Mar 01:04:43 01:13:07 47° 74° (ENE) 01:21:31 435.215
ITUPSAT 1 28 Mar 01:15:51 01:19:58 29° 69° (ENE) 01:24:09 437.325
QB50P1 28 Mar 01:18:19 01:21:33 21° 291° (WNW) 01:24:41 145.935-145.965
DUCHIFAT 1 28 Mar 01:21:20 01:24:28 20° 291° (WNW) 01:27:29 145.980
RS-15 28 Mar 01:30:30 01:37:45 19° 11° (N) 01:45:20 29.354- 29.394
QB50P2 28 Mar 01:33:09 01:35:37 15° 294° (WNW) 01:37:57 145.880/145.840
SWISSCUBE 28 Mar 02:03:45 02:08:34 82° 257° (WSW) 02:13:25 437.505
BEESAT 28 Mar 02:07:04 02:11:51 82° 258° (WSW) 02:16:42 436.000
TISAT 1 28 Mar 02:12:40 02:13:02 10° 272° (W) 02:13:05 437.305
ITAMSAT 1 28 Mar 02:16:38 02:18:33 12° 88° (E) 02:20:46 435.822/435.867
ISS 28 Mar 02:31:58 02:32:53 11° 350° (N) 02:33:46 145.825
PCSat 28 Mar 02:32:03 02:35:35 17° 254° (WSW) 02:38:52 145.827
KKS-1 28 Mar 02:44:02 02:48:14 44° 72° (ENE) 02:52:28 437.445
Oscar 19 28 Mar 02:51:48 02:57:00 87° 278° (W) 03:02:12 437.125/150
Gurwin Techsat 1B 28 Mar 02:53:32 02:57:46 24° 93° (E) 03:02:06 435.225
ITUPSAT 1 28 Mar 02:53:40 02:57:50 28° 265° (W) 03:01:57 437.325
SO-50 28 Mar 02:58:46 03:00:08 11° 35° (NE) 03:01:42 436.795
YUBILEINY 28 Mar 03:01:55 03:09:48 37° 273° (W) 03:17:26 435.215
STARS 28 Mar 03:19:57 03:24:18 71° 75° (ENE) 03:28:41 437.465
RS-15 28 Mar 03:43:53 03:54:29 42° 43° (NE) 04:05:38 29.354- 29.394
ITAMSAT 1 28 Mar 03:53:31 03:58:42 73° 286° (WNW) 04:03:51 435.822/435.867
AO-7 28 Mar 03:58:37 04:04:06 20° 90° (E) 04:10:02 29.400- 29.500
MOZHAYETS 4 28 Mar 04:07:48 04:11:03 20° 68° (ENE) 04:14:28
ISS 28 Mar 04:09:37 04:10:28 11° 10° (N) 04:11:21 145.825
AUBIESAT-1 28 Mar 04:11:17 04:12:20 11° 57° (ENE) 04:13:38 437.475
JAS-2 28 Mar 04:11:24 04:16:58 22° 87° (E) 04:22:32 435.910
KKS-1 28 Mar 04:22:22 04:25:09 16° 269° (W) 04:27:46 437.445
O/OREOS (USA 219) 28 Mar 04:30:15 04:34:31 41° 106° (ESE) 04:38:52 437.305
M-CUBED/EXP-1 PRIME 28 Mar 04:32:08 04:35:04 20° 62° (ENE) 04:38:18 437.505
Gurwin Techsat 1B 28 Mar 04:32:57 04:37:54 39° 290° (WNW) 04:42:47 435.225
Oscar 19 28 Mar 04:34:15 04:35:40 11° 299° (WNW) 04:36:47 437.125/150
AIST 1 28 Mar 04:35:42 04:39:54 45° 93° (E) 04:44:08
SO-50 28 Mar 04:36:51 04:41:46 62° 56° (NE) 04:46:39 436.795
HORYU 2 28 Mar 04:48:24 04:52:57 81° 103° (ESE) 04:57:27 437.375
GONETS M04 28 Mar 05:24:22 05:28:01 13° 57° (ENE) 05:32:20
AUBIESAT-1 28 Mar 05:42:37 05:46:32 71° 254° (WSW) 05:50:50 437.475
MOZHAYETS 4 28 Mar 05:43:42 05:48:03 40° 263° (W) 05:52:24
ISS 28 Mar 05:44:47 05:47:41 30° 29° (NNE) 05:50:36 145.825
PRISM 28 Mar 05:45:23 05:47:01 12° 65° (ENE) 05:48:51 437.425
AO-7 28 Mar 05:49:35 05:57:54 80° 289° (WNW) 06:06:12 29.400- 29.500
CUBESAT XI-V 28 Mar 05:50:23 05:53:35 19° 67° (ENE) 05:56:56 437.345
JAS-2 28 Mar 05:55:01 06:02:48 71° 287° (WNW) 06:09:57 435.910
RS-15 28 Mar 05:56:15 06:07:37 64° 245° (WSW) 06:19:22 29.354- 29.394
STRAND 1 28 Mar 05:59:49 06:02:36 15° 63° (ENE) 06:05:37 437.568
Cubesat XI-IV 28 Mar 06:06:00 06:06:26 10° 86° (E) 06:07:18 437.490
M-CUBED/EXP-1 PRIME 28 Mar 06:06:13 06:09:46 32° 260° (W) 06:13:35 437.505
CUTE-I 28 Mar 06:06:29 06:06:44 10° 86° (E) 06:07:24 437.470
O/OREOS (USA 219) 28 Mar 06:10:43 06:14:10 20° 304° (WNW) 06:17:31 437.305
AIST 1 28 Mar 06:15:20 06:17:54 15° 291° (WNW) 06:20:16
SO-50 28 Mar 06:18:52 06:21:53 16° 251° (WSW) 06:24:41 436.795
HORYU 2 28 Mar 06:28:29 06:29:02 10° 297° (WNW) 06:29:18 437.375
VERMONT LUNAR 28 Mar 06:31:03 06:34:09 36° 156° (SSE) 06:37:17 437.305
PHONESAT 2.4 28 Mar 06:58:43 07:01:45 27° 152° (SSE) 07:04:49 2401.200-2431.200
PRISM 28 Mar 07:17:55 07:22:04 57° 259° (W) 07:26:15 437.425
GONETS M04 28 Mar 07:18:03 07:26:53 72° 80° (E) 07:35:43
ISS 28 Mar 07:21:14 07:24:04 28° 226° (SW) 07:26:52 145.825
CUBESAT XI-V 28 Mar 07:26:14 07:30:44 43° 262° (W) 07:35:15 437.345
STRAND 1 28 Mar 07:36:12 07:41:19 67° 258° (WSW) 07:46:28 437.568
Cubesat XI-IV 28 Mar 07:42:01 07:47:22 87° 289° (WNW) 07:52:42 437.490
CUTE-I 28 Mar 07:42:17 07:47:38 87° 289° (WNW) 07:52:58 437.470
JAS-2 28 Mar 07:42:29 07:46:33 15° 305° (NW) 07:50:05 435.910
AO-7 28 Mar 07:44:21 07:49:37 18° 307° (NW) 07:54:30 29.400- 29.500
CUSAT 1 28 Mar 08:03:01 08:06:50 33° 78° (ENE) 08:11:48 437.405
VERMONT LUNAR 28 Mar 08:08:24 08:11:45 78° 351° (N) 08:15:08 437.305
RS-15 28 Mar 08:14:18 08:18:20 12° 262° (W) 08:21:04 29.354- 29.394
PHONESAT 2.4 28 Mar 08:36:22 08:39:54 89° 178° (S) 08:43:27 2401.200-2431.200
DANDE 28 Mar 08:43:06 08:46:59 64° 80° (E) 08:52:16 436.750
GOMX 1 28 Mar 08:44:17 08:45:56 12° 90° (E) 08:47:53 467.674
HO-68 28 Mar 09:13:11 09:19:29 33° 95° (E) 09:25:53 435.675
GONETS M04 28 Mar 09:16:24 09:22:58 23° 278° (W) 09:29:11
CANX-2 28 Mar 09:18:09 09:21:51 28° 95° (E) 09:25:36 2200.000
Cubesat XI-IV 28 Mar 09:25:02 09:26:46 11° 300° (WNW) 09:28:12 437.490
CUTE-I 28 Mar 09:25:17 09:27:01 11° 300° (WNW) 09:28:28 437.470
BRITE-PL 28 Mar 09:26:16 09:30:24 58° 100° (E) 09:34:43 437.365/2234.400
CUTE 1.7 + AOD 2 28 Mar 09:32:07 09:36:06 36° 97° (E) 09:40:06 437.475
UNISAT 6 28 Mar 09:41:45 09:42:35 11° 64° (ENE) 09:43:40 437.425
CUSAT 1 28 Mar 09:46:10 09:49:37 22° 264° (W) 09:53:39 437.405
VERMONT LUNAR 28 Mar 09:46:13 09:49:35 77° 8° (N) 09:52:58 437.305
TIGRISAT 28 Mar 09:51:26 09:53:26 14° 65° (ENE) 09:55:39 435.000
DELFI C3 28 Mar 09:52:28 09:53:51 12° 89° (E) 09:55:29 145.870
AAUSAT CUBESAT 2 28 Mar 10:02:01 10:06:07 46° 99° (E) 10:10:12 437.432
SEEDS 28 Mar 10:03:17 10:07:34 71° 100° (E) 10:11:51 437.485
CINEMA 3 28 Mar 10:05:39 10:09:42 35° 97° (E) 10:13:56 145.822/145.860
PHONESAT 2.4 28 Mar 10:14:49 10:18:22 72° 6° (N) 10:21:54 2401.200-2431.200
DOVE 4 28 Mar 10:15:35 10:19:55 90° 285° (WNW) 10:24:27 437.250
Oscar 11 28 Mar 10:16:58 10:20:52 31° 96° (E) 10:24:47 145.826/435.025
ANTELSAT 28 Mar 10:19:12 10:22:47 28° 70° (ENE) 10:26:30 437.575/2403.000
GOMX 1 28 Mar 10:20:19 10:24:27 52° 285° (WNW) 10:28:47 467.674
FUNcube-1 28 Mar 10:25:04 10:28:17 20° 93° (E) 10:31:39 145.935
UWE-3 28 Mar 10:25:16 10:28:56 26° 95° (E) 10:32:44 435.000/436.395/437.385
CUBEBUG 2 28 Mar 10:27:06 10:31:05 33° 97° (E) 10:35:12 437.445
COMPASS 1 28 Mar 10:27:54 10:32:10 74° 284° (WNW) 10:36:23 437.405
QB50P1 28 Mar 10:34:29 10:37:38 21° 69° (ENE) 10:40:53 145.935-145.965
ZACube-1 28 Mar 10:36:59 10:40:44 28° 95° (E) 10:44:37 437.345
DUCHIFAT 1 28 Mar 10:37:06 10:40:18 22° 69° (ENE) 10:43:36 145.980
BEESAT 2 28 Mar 10:39:30 10:43:06 31° 114° (ESE) 10:46:48 435.950
QB50P2 28 Mar 10:48:12 10:51:54 30° 71° (ENE) 10:55:38 145.880/145.840
CANX-2 28 Mar 10:54:12 10:57:42 24° 290° (WNW) 11:01:08 2200.000
BRITE-PL 28 Mar 11:07:09 11:08:37 11° 294° (WNW) 11:09:51 437.365/2234.400
